This is the latest recevied weather packets stored in our database for station/object DL4NBA-1. If no packets are shown the sender has not sent any weather packets the latest 10 day(s).
| Time | Temp. | Humidity | Pressure | Rain* | Wind** | Luminosity | Snow |
|---|---|---|---|---|---|---|---|
| 1777797410 | 22.22° C | - | - | 0 mm | 1.79 m/s, 207° | - | - |
| 1777797111 | 23.33° C | - | - | 0 mm | 1.34 m/s, 177° | - | - |
| 1777795615 | 21.11° C | - | - | 0 mm | 0 m/s | - | - |
| 1777795316 | 20.56° C | - | - | 0 mm | 0.45 m/s, 149° | - | - |
| 1777795017 | 20.56° C | - | - | 0 mm | 0.89 m/s, 159° | - | - |
| 1777794416 | 20° C | - | - | 0 mm | 0.45 m/s, 149° | - | - |
| 1777794118 | 20° C | - | - | 0 mm | 0.45 m/s, 214° | - | - |
| 1777793819 | 19.44° C | - | - | 0 mm | 0.45 m/s, 139° | - | - |
| 1777792620 | 19.44° C | - | - | 0 mm | 1.79 m/s, 203° | - | - |
| 1777792321 | 18.89° C | - | - | 0 mm | 0.89 m/s, 217° | - | - |
| 1777792023 | 20° C | - | - | 0 mm | 1.34 m/s, 163° | - | - |
| 1777791421 | 18.89° C | - | - | 0 mm | 0.89 m/s, 124° | - | - |
| 1777791123 | 17.78° C | - | - | 0 mm | 0.45 m/s, 179° | - | - |
| 1777790824 | 17.78° C | - | - | 0 mm | 0.89 m/s, 204° | - | - |
| 1777790526 | 17.78° C | - | - | 0 mm | 0 m/s | - | - |
| 1777790227 | 16.67° C | - | - | 0 mm | 0.45 m/s, 203° | - | - |
| 1777789327 | 16.67° C | - | - | 0 mm | 0 m/s | - | - |
| 1777789028 | 15.56° C | - | - | 0 mm | 0 m/s | - | - |
| 1777788729 | 15.56° C | - | - | 0 mm | 0 m/s | - | - |
| 1777788428 | 15° C | - | - | 0 mm | 0 m/s | - | - |
| 1777788129 | 15° C | - | - | 0 mm | 0 m/s | - | - |
| 1777787532 | 13.89° C | - | - | 0 mm | 0 m/s | - | - |
| 1777787233 | 13.33° C | - | - | 0 mm | 0 m/s | - | - |
| 1777786931 | 12.22° C | - | - | 0 mm | 0.45 m/s, 210° | - | - |
| 1777786632 | 11.67° C | - | - | 0 mm | 1.34 m/s, 218° | - | - |
* Rain latest hour (hover to see other rain measurements)
** Current wind speed in m/s (hover to see current wind gust speed)